Location: La Pernelle
(49.6188°N, 1.2999°W)
Time: 09:58:51
(UTC+00:00)

Cosmos 2016 Rocket - Pass Details

Date: 12 June 2021
Orbit: 947 x 1000 km, 83.0° (Epoch: 27 July)

Event Time Altitude Azimuth Distance (km) Brightness Sun altitude
Rises 22:08:03 0° 351° (N) 3,636 8.5 -12.7°
Reaches altitude 10° 22:10:35 10° 354° (N) 2,684 7.5 -12.8°
Maximum altitude 22:16:42 74° 79° (E) 990 4.0 -13.3°
Enters shadow 22:21:16 19° 162° (SSE) 2,107 5.1 -13.6°
